When you browse on this site, cookies collect data to enhance your experience and personalize the content and advertising you see.
Visit our Privacy Policy to learn more. By continuing to use the site, you agree to this use of cookies and data.
  • In Österreich
  • Länderverzeichnis
  • Für 7 Tage
  • Wassertemperatur
  • Wetterkarte
  • News
  • Widgets
  • user-avatar
    Anmelden

    Stündliche Wetter Abowian

    Heute, 29 Februar, Samstag

    Zeit Temperatur Niederschläge Wind Luftdruck Luftfeuchtigkeit
    00:00 +3°C° 0 mm 2 m/S 668 mmHg 58%
    01:00 +4°C° 0 mm 1 m/S 668 mmHg 59%
    02:00 +4°C° 0 mm 1 m/S 668 mmHg 60%
    03:00 +3°C° 0 mm 1 m/S 668 mmHg 59%
    04:00 +4°C° 0 mm 1 m/S 668 mmHg 60%
    05:00 +4°C° 0 mm 1 m/S 668 mmHg 61%
    06:00 +4°C° 0 mm 1 m/S 668 mmHg 62%
    07:00 +5°C° 0 mm 1 m/S 668 mmHg 59%
    08:00 +6°C° 0 mm 1 m/S 668 mmHg 57%
    09:00 +7°C° 0 mm 1 m/S 668 mmHg 55%
    10:00 +8°C° 0 mm 1 m/S 668 mmHg 54%
    11:00 +9°C° 0 mm 1 m/S 667 mmHg 53%
    12:00 +9°C° 0 mm 2 m/S 667 mmHg 52%
    13:00 +9°C° 0 mm 2 m/S 666 mmHg 52%
    14:00 +9°C° 0 mm 2 m/S 666 mmHg 52%
    15:00 +10°C° 0 mm 2 m/S 665 mmHg 52%
    16:00 +9°C° 0.1 mm 2 m/S 665 mmHg 55%
    17:00 +8°C° 0.1 mm 2 m/S 665 mmHg 57%
    18:00 +7°C° 0.1 mm 3 m/S 665 mmHg 60%
    19:00 +7°C° 0.2 mm 3 m/S 665 mmHg 65%
    20:00 +5°C° 0.2 mm 3 m/S 665 mmHg 70%
    21:00 +5°C° 0.2 mm 3 m/S 665 mmHg 74%
    22:00 +6°C° 0.3 mm 2 m/S 665 mmHg 76%
    23:00 +6°C° 0.3 mm 2 m/S 665 mmHg 77%

    Morgen, 1 März, Sonntag

    Zeit Temperatur Niederschläge Wind Luftdruck Luftfeuchtigkeit
    00:00 +6°C° 0.3 mm 2 m/S 665 mmHg 79%
    01:00 +6°C° 0.6 mm 2 m/S 665 mmHg 81%
    02:00 +6°C° 0.6 mm 2 m/S 665 mmHg 83%
    03:00 +6°C° 0.6 mm 2 m/S 665 mmHg 85%
    04:00 +5°C° 0.1 mm 2 m/S 665 mmHg 86%
    05:00 +6°C° 0.1 mm 1 m/S 665 mmHg 88%
    06:00 +5°C° 0.1 mm 1 m/S 665 mmHg 89%
    07:00 +6°C° 0.1 mm 1 m/S 665 mmHg 86%
    08:00 +7°C° 0.1 mm 1 m/S 666 mmHg 84%
    09:00 +7°C° 0.1 mm 1 m/S 666 mmHg 81%
    10:00 +8°C° 0.1 mm 1 m/S 666 mmHg 79%
    11:00 +8°C° 0.1 mm 1 m/S 666 mmHg 76%
    12:00 +9°C° 0.1 mm 1 m/S 666 mmHg 74%
    13:00 +9°C° 0.1 mm 1 m/S 666 mmHg 72%
    14:00 +10°C° 0.1 mm 1 m/S 666 mmHg 71%
    15:00 +10°C° 0.1 mm 1 m/S 666 mmHg 69%
    16:00 +8°C° 0.1 mm 2 m/S 666 mmHg 70%
    17:00 +7°C° 0.1 mm 2 m/S 667 mmHg 70%
    18:00 +7°C° 0.1 mm 2 m/S 667 mmHg 71%
    19:00 +6°C° 0 mm 2 m/S 667 mmHg 70%
    20:00 +6°C° 0 mm 2 m/S 668 mmHg 70%
    21:00 +5°C° 0 mm 2 m/S 668 mmHg 70%
    22:00 +5°C° 0 mm 2 m/S 668 mmHg 70%
    23:00 +4°C° 0 mm 2 m/S 669 mmHg 70%

    übermorgen, 2 März, Montag

    Zeit Temperatur Niederschläge Wind Luftdruck Luftfeuchtigkeit
    00:00 +4°C° 0 mm 2 m/S 669 mmHg 70%
    01:00 +3°C° 0 mm 2 m/S 669 mmHg 70%
    02:00 +3°C° 0 mm 2 m/S 669 mmHg 69%
    03:00 +3°C° 0 mm 2 m/S 669 mmHg 69%
    04:00 +2°C° 0 mm 2 m/S 669 mmHg 68%
    05:00 +2°C° 0 mm 2 m/S 669 mmHg 68%
    06:00 +2°C° 0 mm 2 m/S 669 mmHg 68%
    07:00 +3°C° 0 mm 2 m/S 670 mmHg 65%
    08:00 +5°C° 0 mm 1 m/S 671 mmHg 63%
    09:00 +6°C° 0 mm 1 m/S 671 mmHg 61%
    10:00 +7°C° 0 mm 1 m/S 671 mmHg 60%
    11:00 +7°C° 0 mm 1 m/S 671 mmHg 59%
    12:00 +8°C° 0 mm 1 m/S 671 mmHg 58%
    13:00 +9°C° 0 mm 1 m/S 671 mmHg 58%
    14:00 +9°C° 0 mm 1 m/S 671 mmHg 57%
    15:00 +9°C° 0 mm 1 m/S 671 mmHg 57%
    16:00 +9°C° 0 mm 1 m/S 671 mmHg 59%
    17:00 +8°C° 0 mm 1 m/S 671 mmHg 62%
    18:00 +7°C° 0 mm 1 m/S 671 mmHg 64%
    19:00 +6°C° 0 mm 1 m/S 672 mmHg 65%
    20:00 +6°C° 0 mm 1 m/S 672 mmHg 66%
    21:00 +5°C° 0 mm 1 m/S 672 mmHg 67%
    22:00 +4°C° 0 mm 1 m/S 673 mmHg 68%
    23:00 +4°C° 0 mm 1 m/S 673 mmHg 68%

    3 März, Dienstag

    Zeit Temperatur Niederschläge Wind Luftdruck Luftfeuchtigkeit
    00:00 +4°C° 0 mm 1 m/S 673 mmHg 69%
    01:00 +3°C° 0 mm 1 m/S 673 mmHg 69%
    02:00 +3°C° 0 mm 1 m/S 673 mmHg 70%
    03:00 +3°C° 0 mm 1 m/S 673 mmHg 70%
    04:00 +3°C° 0 mm 1 m/S 673 mmHg 71%
    05:00 +2°C° 0 mm 1 m/S 673 mmHg 73%
    06:00 +2°C° 0 mm 1 m/S 673 mmHg 74%
    07:00 +3°C° 0 mm 1 m/S 674 mmHg 70%
    08:00 +5°C° 0 mm 1 m/S 674 mmHg 66%
    09:00 +6°C° 0 mm 1 m/S 675 mmHg 62%
    10:00 +7°C° 0 mm 1 m/S 675 mmHg 61%
    11:00 +8°C° 0 mm 1 m/S 674 mmHg 60%
    12:00 +9°C° 0 mm 1 m/S 674 mmHg 59%
    13:00 +9°C° 0 mm 1 m/S 674 mmHg 58%
    14:00 +10°C° 0 mm 1 m/S 674 mmHg 57%
    15:00 +10°C° 0 mm 1 m/S 673 mmHg 56%
    16:00 +9°C° 0 mm 1 m/S 674 mmHg 58%
    17:00 +8°C° 0 mm 1 m/S 674 mmHg 59%
    18:00 +7°C° 0 mm 1 m/S 674 mmHg 61%
    19:00 +7°C° 0 mm 1 m/S 674 mmHg 61%
    20:00 +6°C° 0 mm 1 m/S 674 mmHg 60%
    21:00 +6°C° 0 mm 1 m/S 675 mmHg 60%
    22:00 +5°C° 0 mm 1 m/S 674 mmHg 59%
    23:00 +5°C° 0 mm 1 m/S 674 mmHg 58%

    4 März, Mittwoch

    Zeit Temperatur Niederschläge Wind Luftdruck Luftfeuchtigkeit
    00:00 +4°C° 0 mm 1 m/S 674 mmHg 56%
    01:00 +4°C° 0 mm 1 m/S 674 mmHg 56%
    02:00 +4°C° 0 mm 1 m/S 674 mmHg 56%
    03:00 +3°C° 0 mm 1 m/S 674 mmHg 56%
    04:00 +3°C° 0 mm 1 m/S 674 mmHg 56%
    05:00 +3°C° 0 mm 1 m/S 674 mmHg 56%
    06:00 +3°C° 0 mm 1 m/S 674 mmHg 57%
    07:00 +4°C° 0 mm 1 m/S 674 mmHg 55%
    08:00 +5°C° 0 mm 1 m/S 675 mmHg 53%
    09:00 +6°C° 0 mm 0 m/S 675 mmHg 51%
    10:00 +8°C° 0 mm 1 m/S 675 mmHg 51%
    11:00 +9°C° 0 mm 1 m/S 674 mmHg 50%
    12:00 +10°C° 0 mm 1 m/S 674 mmHg 50%
    13:00 +10°C° 0 mm 1 m/S 674 mmHg 48%
    14:00 +11°C° 0 mm 1 m/S 674 mmHg 47%
    15:00 +10°C° 0 mm 0 m/S 673 mmHg 46%
    16:00 +10°C° 0 mm 1 m/S 673 mmHg 46%
    17:00 +9°C° 0 mm 1 m/S 673 mmHg 47%
    18:00 +8°C° 0 mm 1 m/S 673 mmHg 47%
    19:00 +8°C° 0 mm 1 m/S 673 mmHg 47%
    20:00 +8°C° 0 mm 1 m/S 673 mmHg 46%
    21:00 +8°C° 0 mm 1 m/S 674 mmHg 45%
    22:00 +7°C° 0 mm 1 m/S 674 mmHg 45%
    23:00 +7°C° 0 mm 1 m/S 673 mmHg 45%

    5 März, Donnerstag

    Zeit Temperatur Niederschläge Wind Luftdruck Luftfeuchtigkeit
    00:00 +6°C° 0 mm 1 m/S 673 mmHg 45%
    01:00 +6°C° 0 mm 1 m/S 673 mmHg 45%
    02:00 +5°C° 0 mm 1 m/S 673 mmHg 45%
    03:00 +5°C° 0 mm 1 m/S 672 mmHg 45%
    04:00 +5°C° 0 mm 1 m/S 672 mmHg 45%
    05:00 +4°C° 0 mm 1 m/S 672 mmHg 46%
    06:00 +4°C° 0 mm 1 m/S 672 mmHg 46%
    07:00 +6°C° 0 mm 1 m/S 672 mmHg 45%
    08:00 +7°C° 0 mm 1 m/S 673 mmHg 44%
    09:00 +8°C° 0 mm 1 m/S 673 mmHg 43%
    10:00 +9°C° 0 mm 1 m/S 673 mmHg 43%
    11:00 +10°C° 0 mm 1 m/S 672 mmHg 44%
    12:00 +11°C° 0 mm 1 m/S 672 mmHg 44%
    13:00 +12°C° 0 mm 1 m/S 672 mmHg 43%
    14:00 +12°C° 0 mm 1 m/S 671 mmHg 42%
    15:00 +13°C° 0 mm 1 m/S 671 mmHg 41%
    16:00 +12°C° 0 mm 1 m/S 671 mmHg 40%
    17:00 +11°C° 0 mm 1 m/S 671 mmHg 40%
    18:00 +10°C° 0 mm 1 m/S 670 mmHg 39%
    19:00 +9°C° 0 mm 1 m/S 671 mmHg 39%
    20:00 +8°C° 0 mm 2 m/S 671 mmHg 39%
    21:00 +7°C° 0 mm 2 m/S 671 mmHg 39%
    22:00 +7°C° 0 mm 2 m/S 671 mmHg 41%
    23:00 +7°C° 0 mm 2 m/S 670 mmHg 43%
    Mehr zeigen